Greeley, CO

6:26 AM MDT on April 26, 2017 (GMT -0600)
Greeley-Weld County

Weather History for KGXY - April, 2013

Change the Weather History Date:

Tuesday, April 9, 2013

  Actual Average Record
Temperature  
Mean Temperature 18 °F -  
Max Temperature 23 °F - 82 °F (1977)
Min Temperature 12 °F - 12 °F (2013)
Degree Days  
Heating Degree Days 48    
Month to date heating degree days  
Cooling Degree Days 0    
Month to date cooling degree days  
Moisture  
Dew Point 9 °F    
Average Humidity 72    
Maximum Humidity 80    
Minimum Humidity 63    
Precipitation  
Precipitation 0.00 in - 1.05 in (1978)
Sea Level Pressure  
Sea Level Pressure 30.07 in    
Wind  
Wind Speed 21 mph (North)    
Max Wind Speed 31 mph    
Max Gust Speed 37 mph    
Visibility 4 miles    
Events      
T = Trace of Precipitation, MM = Missing Value Source: NWS Daily Summary

Daily Weather History Graph

Daily Weather History Graph

Search for Another Location

Airport or City:

Trip Planner

Search our weather history database for the weather conditions in past years. The results will help you decide how hot, cold, wet, or windy it might be!

Date:

Astronomy

Apr. 09, 2013 Rise Set
Actual Time 6:28 AM MDT 7:31 PM MDT
Civil Twilight 6:01 AM MDT 7:59 PM MDT
Nautical Twilight 5:27 AM MDT 8:32 PM MDT
Astronomical Twilight 4:53 AM MDT 9:07 PM MDT
Moon 5:53 AM MDT (4/9) 7:09 PM MDT (4/9)
Length of Visible Light 13h 58m
Length of Day
13h 02m
Waning Crescent, 0% of the Moon is Illuminated
Apr 9
Waning Crescent
Apr 10
New
Apr 18
First Quarter
Apr 25
Full
May 2
Last Quarter

Hourly Weather History & Observations

Time (MDT) Temp. Windchill Dew Point Humidity Pressure Visibility Wind Dir Wind Speed Gust Speed Precip Events Conditions
12:15 AM 23.0 °F 7.6 °F 15.8 °F 74% 29.86 in 2.0 mi NNW 21.9 mph 32.2 mph N/A   Overcast
12:35 AM 21.2 °F 5.6 °F 15.8 °F 80% 29.87 in 1.5 mi NNW 20.7 mph 26.5 mph N/A   Overcast
12:55 AM 21.2 °F 5.2 °F 15.8 °F 80% 29.87 in 2.5 mi NNW 21.9 mph 31.1 mph N/A   Overcast
1:15 AM 21.2 °F 4.5 °F 15.8 °F 80% 29.88 in 3.0 mi North 24.2 mph 31.1 mph N/A   Overcast
1:35 AM 21.2 °F 4.9 °F 14.0 °F 74% 29.91 in 7.0 mi North 23.0 mph 31.1 mph N/A   Overcast
1:55 AM 21.2 °F 6.4 °F 12.2 °F 68% 29.92 in 10.0 mi North 18.4 mph - N/A   Overcast
2:15 AM 21.2 °F 5.2 °F 12.2 °F 68% 29.94 in 10.0 mi North 21.9 mph 29.9 mph N/A   Overcast
2:35 AM 21.2 °F 5.6 °F 10.4 °F 63% 29.93 in 6.0 mi North 20.7 mph - N/A   Overcast
2:55 AM 19.4 °F 0.2 °F 12.2 °F 74% 29.88 in 3.0 mi North 31.1 mph 36.8 mph N/A   Overcast
3:15 AM 19.4 °F 2.5 °F 12.2 °F 74% 29.92 in 5.0 mi North 23.0 mph 35.7 mph N/A   Overcast
3:35 AM 19.4 °F 3.2 °F 12.2 °F 74% 29.96 in 10.0 mi North 20.7 mph 26.5 mph N/A   Overcast
3:55 AM 19.4 °F 1.1 °F 10.4 °F 68% 29.95 in 1.5 mi North 27.6 mph 32.2 mph N/A   Overcast
4:15 AM 19.4 °F 1.4 °F 12.2 °F 74% 29.95 in 0.8 mi North 26.5 mph 33.4 mph N/A   Overcast
4:35 AM 17.6 °F 0.1 °F 12.2 °F 79% 29.95 in 0.8 mi North 23.0 mph 29.9 mph N/A   Overcast
4:55 AM 17.6 °F 1.7 °F 10.4 °F 73% 29.98 in 2.0 mi North 18.4 mph 27.6 mph N/A   Overcast
5:15 AM 17.6 °F 1.3 °F 10.4 °F 73% 29.99 in 2.0 mi North 19.6 mph 26.5 mph N/A   Overcast
5:35 AM 17.6 °F 1.7 °F 10.4 °F 73% 30.00 in 3.0 mi North 18.4 mph 26.5 mph N/A   Overcast
5:55 AM 17.6 °F 2.2 °F 10.4 °F 73% 30.00 in 10.0 mi North 17.3 mph 25.3 mph N/A   Overcast
6:15 AM 17.6 °F 1.3 °F 10.4 °F 73% 30.00 in 10.0 mi North 19.6 mph 24.2 mph N/A   Overcast
6:35 AM 17.6 °F 0.9 °F 10.4 °F 73% 30.00 in 10.0 mi North 20.7 mph 29.9 mph N/A   Overcast
6:55 AM 19.4 °F 2.8 °F 8.6 °F 63% 30.01 in 9.0 mi North 21.9 mph - N/A   Overcast
7:55 AM 17.6 °F 0.9 °F 8.6 °F 68% 30.07 in 10.0 mi North 20.7 mph - N/A   Overcast
8:15 AM 17.6 °F 0.5 °F 8.6 °F 68% 30.07 in 7.0 mi North 21.9 mph 27.6 mph N/A   Overcast
8:35 AM 17.6 °F -1.0 °F 8.6 °F 68% 30.05 in 2.5 mi North 26.5 mph 32.2 mph N/A   Overcast
9:15 AM 17.6 °F -0.6 °F 8.6 °F 68% 30.07 in 2.0 mi North 25.3 mph 29.9 mph N/A   Overcast
9:35 AM 17.6 °F 0.5 °F 8.6 °F 68% 30.07 in 1.2 mi North 21.9 mph 29.9 mph N/A   Overcast
9:55 AM 17.6 °F 1.3 °F 8.6 °F 68% 30.08 in 5.0 mi NNW 19.6 mph 24.2 mph N/A   Overcast
10:15 AM 17.6 °F 1.3 °F 8.6 °F 68% 30.09 in 2.0 mi NNW 19.6 mph 25.3 mph N/A   Overcast
10:35 AM 17.6 °F 0.5 °F 8.6 °F 68% 30.11 in 1.5 mi North 21.9 mph - N/A   Overcast
10:55 AM 17.6 °F 0.5 °F 8.6 °F 68% 30.09 in 1.5 mi North 21.9 mph 25.3 mph N/A   Overcast
11:15 AM 17.6 °F -0.3 °F 8.6 °F 68% 30.09 in 1.2 mi NNW 24.2 mph - N/A   Overcast
11:35 AM 15.8 °F -1.5 °F 8.6 °F 73% 30.09 in 0.8 mi North 20.7 mph 25.3 mph N/A   Overcast
11:55 AM 15.8 °F -1.9 °F 8.6 °F 73% 30.09 in 1.0 mi North 21.9 mph - N/A   Overcast
12:15 PM 15.8 °F -3.4 °F 8.6 °F 73% 30.09 in 0.5 mi North 26.5 mph - N/A   Overcast
12:35 PM 15.8 °F -2.3 °F 10.4 °F 79% 30.08 in 0.8 mi North 23.0 mph - N/A   Overcast
12:55 PM 15.8 °F -1.1 °F 8.6 °F 73% 30.09 in 0.5 mi North 19.6 mph - N/A   Overcast
1:15 PM 15.8 °F -1.1 °F 10.4 °F 79% 30.10 in 0.2 mi North 19.6 mph - N/A   Overcast
1:35 PM 15.8 °F -1.5 °F 8.6 °F 73% 30.09 in 0.2 mi North 20.7 mph - N/A   Overcast
1:55 PM 15.8 °F -0.2 °F 10.4 °F 79% 30.10 in 0.2 mi North 17.3 mph - N/A   Overcast
2:15 PM 15.8 °F -0.6 °F 8.6 °F 73% 30.10 in 1.2 mi North 18.4 mph - N/A   Overcast
2:35 PM 15.8 °F -2.3 °F 8.6 °F 73% 30.10 in 1.5 mi North 23.0 mph - N/A   Overcast
2:55 PM 15.8 °F -1.1 °F 8.6 °F 73% 30.09 in 1.5 mi North 19.6 mph - N/A   Overcast
3:15 PM 15.8 °F -1.1 °F 8.6 °F 73% 30.09 in 2.5 mi North 19.6 mph - N/A   Mostly Cloudy
3:35 PM 17.6 °F -0.6 °F 8.6 °F 68% 30.10 in 2.0 mi North 25.3 mph - N/A   Overcast
3:55 PM 15.8 °F -1.5 °F 8.6 °F 73% 30.10 in 1.5 mi North 20.7 mph 26.5 mph N/A   Overcast
4:15 PM 15.8 °F -0.6 °F 8.6 °F 73% 30.12 in 5.0 mi North 18.4 mph 27.6 mph N/A   Overcast
4:35 PM 15.8 °F -1.5 °F 8.6 °F 73% 30.11 in 3.0 mi North 20.7 mph - N/A   Overcast
5:15 PM 15.8 °F -1.9 °F 8.6 °F 73% 30.11 in 1.2 mi North 21.9 mph 25.3 mph N/A   Overcast
5:35 PM 15.8 °F -1.1 °F 8.6 °F 73% 30.13 in 1.8 mi North 19.6 mph - N/A   Overcast
5:55 PM 15.8 °F -0.6 °F 8.6 °F 73% 30.15 in 2.5 mi North 18.4 mph - N/A   Overcast
6:15 PM 15.8 °F 0.9 °F 8.6 °F 73% 30.15 in 3.0 mi North 15.0 mph 21.9 mph N/A   Overcast
6:35 PM 15.8 °F -0.2 °F 8.6 °F 73% 30.16 in 5.0 mi North 17.3 mph - N/A   Overcast
6:55 PM 15.8 °F -0.2 °F 8.6 °F 73% 30.16 in 10.0 mi North 17.3 mph - N/A   Overcast
7:15 PM 15.8 °F 1.4 °F 8.6 °F 73% 30.16 in 8.0 mi North 13.8 mph - N/A   Overcast
7:35 PM 15.8 °F -0.2 °F 6.8 °F 68% 30.16 in 0.8 mi North 17.3 mph - N/A   Overcast
7:55 PM 14.0 °F -2.0 °F 6.8 °F 73% 30.16 in 1.2 mi North 16.1 mph - N/A   Overcast
8:15 PM 14.0 °F -2.5 °F 6.8 °F 73% 30.18 in 2.5 mi North 17.3 mph - N/A   Overcast
8:55 PM 14.0 °F -1.4 °F 6.8 °F 73% 30.20 in 9.0 mi North 15.0 mph - N/A   Overcast
9:15 PM 14.0 °F -0.8 °F 6.8 °F 73% 30.20 in 10.0 mi North 13.8 mph - N/A   Overcast
9:35 PM 14.0 °F -1.4 °F 6.8 °F 73% 30.20 in 10.0 mi North 15.0 mph - N/A   Overcast
9:55 PM 14.0 °F -2.0 °F 6.8 °F 73% 30.20 in 8.0 mi North 16.1 mph - N/A   Overcast
10:15 PM 14.0 °F -1.4 °F 5.0 °F 67% 30.19 in 4.0 mi North 15.0 mph - N/A   Overcast
10:35 PM 12.2 °F -3.1 °F 6.8 °F 79% 30.19 in 7.0 mi NNW 13.8 mph - N/A   Overcast
10:55 PM 12.2 °F -3.1 °F 5.0 °F 73% 30.18 in 10.0 mi NNW 13.8 mph - N/A   Overcast
11:15 PM 12.2 °F -1.8 °F 5.0 °F 73% 30.17 in 10.0 mi North 11.5 mph - N/A   Overcast
11:35 PM 12.2 °F -0.2 °F 3.2 °F 67% 30.17 in 10.0 mi North 9.2 mph - N/A   Overcast
11:55 PM 12.2 °F 1.7 °F 3.2 °F 67% 30.17 in 10.0 mi NNW 6.9 mph - N/A   Scattered Clouds